Location: Praha
(50.0830°N, 14.4670°E)
Time: 05:43:47
(UTC+02:00)

ISS - Pass Details

Date: 12 July 2024
Orbit: 409 x 423 km, 51.6° (Epoch: 24 July)

Event Time Altitude Azimuth Distance (km) Brightness Sun altitude
Rises 01:25:55 0° 283° (WNW) 2,341 0.2 -17.9°
Reaches altitude 10° 01:28:00 10° 285° (WNW) 1,480 -0.9 -17.8°
Maximum altitude 01:31:19 79° 11° (N) 425 -3.7 -17.8°
Drops below altitude 10° 01:34:39 10° 100° (E) 1,483 -1.0 -17.7°
Sets 01:36:45 0° 101° (ESE) 2,347 0.0 -17.7°
